Flag for France Weather past 2 weeks in Poitiers, France

Now
48 °F

Overcast.


Feels Like: 47 °F
Forecast: 35 / 46 °F
Wind: 3 mph from West

Location: Poitiers Airport

Current Time: Dec 20, 2014 at 5:11:21 PM

Latest Report: Dec 20, 2014 at 4:30 PM


Visibility: N/A

Pressure: 30.51 "Hg

Humidity: 66%

Dew point: 37 °F

Location of PoitiersLocation

Historic Weather in Poitiers — Graph

°F

Poitiers temperature yesterday

Maximum temperature yesterday: 55 °F (at 2:30 PM)
Minimum temperature yesterday: 48 °F (at 11:00 PM)
Average temperature yesterday: 52 °F

Past Weeks' High & Low Weather Summary

 TemperatureHumidityPressure
High55 °F (Dec 18, 12:30 AM)100% (Dec 5, 10:30 PM)30.54 "Hg (Dec 5, 10:30 PM)
Low27 °F (Dec 15, 2:00 AM)62% (Dec 20, 12:30 PM)29.74 "Hg (Dec 13, 1:00 AM)
Average44 °F90%30.17 "Hg
* Reported Dec 5 4:00 PM — Dec 20 4:00 PM, Poitiers, Weather by CustomWeather, © 2014

Note: Actual official high and low records may vary slightly from our data, if they occured in-between our weather recording intervals... More about our weather records

Advertising

Poitiers weather history for previous 24 hours

 ConditionsComfort  
Time TempWeatherWind HumidityBarometerVisibility
4:00 PM
Dec 20
48 °FOvercast.3 mph62%30.51 "HgN/A
3:30 PM48 °FOvercast.5 mph66%30.51 "HgN/A
3:00 PM48 °FOvercast.5 mph62%30.51 "HgN/A
2:30 PM48 °FOvercast.7 mph62%30.51 "HgN/A
2:00 PM48 °FOvercast.7 mph62%30.51 "HgN/A
1:30 PM48 °FOvercast.7 mph62%30.51 "HgN/A
1:00 PM46 °FOvercast.13 mph66%30.54 "HgN/A
12:30 PM48 °FOvercast.10 mph62%30.51 "HgN/A
12:00 PM46 °FOvercast.8 mph76%30.51 "HgN/A
11:30 AM46 °FOvercast.8 mph82%30.51 "HgN/A
11:00 AM46 °FMore clouds than sun.6 mph87%30.51 "HgN/A
10:30 AM46 °FLow clouds.5 mph93%30.51 "HgN/A
10:00 AM46 °FOvercast.2 mph93%30.48 "HgN/A
9:30 AM46 °FOvercast.3 mph93%30.48 "HgN/A
9:00 AM46 °FOvercast.3 mph93%30.48 "HgN/A
8:30 AM46 °FOvercast.2 mph93%30.48 "HgN/A
8:00 AM46 °FMostly cloudy.3 mph93%30.45 "HgN/A
7:30 AM45 °FOvercast.No wind100%30.45 "HgN/A
7:00 AM45 °FOvercast.1 mph93%30.45 "HgN/A
6:30 AM46 °FOvercast.No wind93%30.42 "HgN/A
6:00 AM46 °FOvercast.1 mph93%30.42 "HgN/A
5:30 AM46 °FOvercast.No wind93%30.42 "HgN/A
5:00 AM46 °FOvercast.2 mph93%30.42 "HgN/A
4:30 AM46 °FOvercast.2 mph93%30.42 "HgN/A
4:00 AM46 °FOvercast.2 mph93%30.42 "HgN/A
3:30 AM46 °FOvercast.No wind93%30.42 "HgN/A
3:00 AM46 °FOvercast.1 mph93%30.42 "HgN/A
2:30 AM46 °FOvercast.1 mph93%30.42 "HgN/A
2:00 AM46 °FOvercast.No wind93%30.42 "HgN/A
1:30 AM46 °FMostly cloudy.3 mph93%30.42 "HgN/A
1:00 AM48 °FOvercast.5 mph87%30.42 "HgN/A
12:30 AM48 °FOvercast.6 mph94%30.42 "HgN/A
12:00 AM48 °FDrizzle. Fog.6 mph94%30.39 "Hg2 mi
11:30 PM
Dec 19
48 °FDrizzle. Fog.12 mph94%30.39 "Hg1 mi
11:00 PM48 °FLight rain. Fog.15 mph100%30.39 "Hg1 mi
10:30 PM54 °FLow clouds.10 mph94%30.36 "Hg4 mi
10:00 PM54 °FLow clouds.10 mph94%30.36 "HgN/A
9:30 PM54 °FLow clouds.13 mph94%30.33 "HgN/A
9:00 PM52 °FLow clouds.13 mph100%30.33 "HgN/A
8:30 PM52 °FLow clouds.14 mph100%30.33 "HgN/A
8:00 PM52 °FLow clouds.14 mph94%30.33 "HgN/A
7:30 PM52 °FLow clouds.16 mph94%30.30 "HgN/A
7:00 PM52 °FLow clouds.15 mph94%30.30 "HgN/A
6:30 PM52 °FLow clouds.16 mph94%30.30 "HgN/A
6:00 PM52 °FLow clouds.15 mph94%30.30 "Hg5 mi
5:30 PM52 °FLow clouds.15 mph94%30.30 "HgN/A
5:00 PM54 °FLow clouds.14 mph88%30.27 "HgN/A
Weather by CustomWeather, © 2014

See weather overviewHow to use our weather pages